sat.trackr.live / text

‹ back to catalog

STARLINK-36347

NORAD 68521 · 2026-068P

PAYLOAD ACTIVE UNKNOWN

§ Identity

Operator
Country
US
Launch date
2026-03-30
Launch site
AFETR
Launch vehicle
Mass (kg)
RCS (m²)

Purposes: comms

External: N2YO · Heavens-Above · Gunter

§ Orbital elements

Epoch: 2026-09-19T18:24:45.960768Z

Period
93.85 min
Inclination
53.1607°
Eccentricity
0.0000332
Mean motion
15.34400953 rev/d
Perigee alt
462.5 km
Apogee alt
462.9 km
Semi-major
6,840.8 km
B*
3.0720e-4
RAAN
305.3464°
Arg perigee
103.1403°
Mean anomaly
256.9636°
Rev number
2,669

§ Raw data

STARLINK-363471 68521U 26068P   26262.76719862  .00010018  00000+0  30720-3 0  99922 68521  53.1607 305.3464 0000332 103.1403 256.9636 15.34400953 26695

JSON: /api/v1/satellites/68521 · /tle

For live sub-satellite position, see the globe view (requires WebGL).

§ Visibility from observer

Set your observer location to see the next 7 days of passes ≥ 10°. The values pass through the URL so the page stays shareable.

No JS? Fill the form by hand. The geolocation button needs JavaScript.